ETV Beaufort SC US WEATHERSTEM current weather conditions

sailwx.info

Wind from 087 at 0 knots gusting 2

Air temperature 17.2° C
Dewpoint 14.1° C

Last reported at 2020-Apr-05 07:00 UTC.
Time now 2020-Apr-05 07:40 UTC

Location: N 32°25' W 080°41'.
View on Google Maps.

See reports from other nearby stations

  
Tides and Currents Weather Stations Pressure Air Temp Water Temp Dewpoint Dewpoint Depression Visibility Wind Speed Wind Dir Waves Ship Positions
date/time (UTC)wind fromknots sea level pressurealtimeterstation pressurevisibilityair tempwater tempwave heightnotes
2020-Apr-05 07:00 087 0 gusting 2 17.2
2020-Apr-05 06:50 17.1
2020-Apr-05 06:40 087 1 gusting 2 17.1
2020-Apr-05 06:30 087 0 gusting 1 17.1
2020-Apr-05 06:20 087 0 gusting 2 17.1
2020-Apr-05 06:10 17.1
2020-Apr-05 06:00 085 2 gusting 4 17.2
2020-Apr-05 05:40 085 1 gusting 3 17.2
2020-Apr-05 05:30 086 3 gusting 5 17.3
2020-Apr-05 05:20 083 0 gusting 5 17.3
2020-Apr-05 05:10 087 0 gusting 2 17.2
2020-Apr-05 05:00 087 1 gusting 1 17.3
2020-Apr-05 04:40 122 0 gusting 2 17.3
2020-Apr-05 04:30 134 2 gusting 4 17.4
2020-Apr-05 04:20 102 1 gusting 2 17.4
2020-Apr-05 04:10 131 2 gusting 3 17.3
2020-Apr-05 04:00 122 1 gusting 3 17.2
2020-Apr-05 03:50 17.2
2020-Apr-05 03:40 140 1 gusting 2 17.2
2020-Apr-05 03:30 103 0 gusting 2 17.2
2020-Apr-05 03:20 090 1 gusting 3 17.2
2020-Apr-05 03:10 094 2 gusting 3 17.4
2020-Apr-05 03:00 098 2 gusting 3 17.6
2020-Apr-05 02:50 094 1 gusting 3 17.6
2020-Apr-05 02:40 092 1 gusting 6 17.7
2020-Apr-05 02:30 086 3 gusting 6 17.7
2020-Apr-05 02:20 082 3 gusting 6 17.7
2020-Apr-05 02:10 085 4 gusting 5 17.7
2020-Apr-05 02:00 084 0 gusting 2 17.7
2020-Apr-05 01:40 092 1 gusting 2 18.2
2020-Apr-05 01:30 103 1 gusting 3 18.2
2020-Apr-05 01:20 131 1 gusting 3 18.3
2020-Apr-05 01:10 090 0 gusting 2 18.4
2020-Apr-05 01:00 087 3 gusting 5 18.5
2020-Apr-05 00:50 101 1 gusting 3 18.8
2020-Apr-05 00:40 132 2 gusting 4 18.8
2020-Apr-05 00:30 140 0 gusting 5 18.9
2020-Apr-05 00:20 091 1 gusting 3 19.0
2020-Apr-05 00:10 096 1 gusting 3 19.3
2020-Apr-05 00:00 098 3 gusting 3 19.7
2020-Apr-04 23:40 090 3 gusting 5 20.1
2020-Apr-04 23:30 103 1 gusting 6 20.3
2020-Apr-04 23:20 098 5 gusting 6 20.6
2020-Apr-04 23:10 098 1 gusting 6 20.8
2020-Apr-04 23:00 100 2 gusting 6 20.8
2020-Apr-04 22:40 148 4 gusting 6 20.9
2020-Apr-04 22:30 113 5 gusting 7 21.1
2020-Apr-04 22:20 146 3 gusting 6 21.1
2020-Apr-04 22:10 145 4 gusting 9 21.1
2020-Apr-04 22:00 099 2 gusting 7 21.0
2020-Apr-04 21:40 118 5 gusting 8 21.2
2020-Apr-04 21:30 140 4 gusting 8 21.4
2020-Apr-04 21:20 123 6 gusting 9 21.4
2020-Apr-04 21:10 095 6 gusting 9 21.5
2020-Apr-04 21:00 133 7 gusting 7 22.0
2020-Apr-04 20:40 154 5 gusting 9 22.5
2020-Apr-04 20:30 120 3 gusting 6 22.7
2020-Apr-04 20:20 120 4 gusting 7 22.7
2020-Apr-04 20:10 134 3 gusting 8 22.7
2020-Apr-04 20:00 141 6 gusting 8 22.8
2020-Apr-04 19:40 094 6 gusting 6 23.3
2020-Apr-04 19:30 155 1 gusting 9 23.2
2020-Apr-04 19:20 142 2 gusting 9 23.2
2020-Apr-04 19:10 115 2 gusting 6 23.2
2020-Apr-04 19:00 150 6 gusting 8 23.1
2020-Apr-04 18:50 23.1
2020-Apr-04 18:40 144 1 gusting 7 23.1
2020-Apr-04 18:30 129 2 gusting 8 23.2
2020-Apr-04 18:20 144 4 gusting 9 23.2
2020-Apr-04 18:10 095 3 gusting 8 23.2
2020-Apr-04 18:00 094 6 gusting 9 23.1
2020-Apr-04 17:50 096 1 gusting 5 22.8
2020-Apr-04 17:40 097 2 gusting 5 22.9
2020-Apr-04 17:30 071 1 gusting 3 21.9
2020-Apr-04 17:20 092 1 gusting 5 22.3
2020-Apr-04 17:10 092 2 gusting 6 21.8
2020-Apr-04 17:00 073 3 gusting 6 22.1
2020-Apr-04 16:50 095 2 gusting 5 21.8
2020-Apr-04 16:40 071 4 gusting 5 21.7
2020-Apr-04 16:30 069 4 gusting 6 21.2
2020-Apr-04 16:20 076 6 gusting 10 21.3
2020-Apr-04 16:10 064 8 gusting 8 21.4
2020-Apr-04 16:00 087 6 gusting 9 21.4
2020-Apr-04 15:50 083 4 gusting 13 20.9
2020-Apr-04 15:40 080 8 gusting 13 20.8
2020-Apr-04 15:30 074 10 gusting 13 21.0
2020-Apr-04 15:20 068 8 gusting 11 20.7
2020-Apr-04 15:10 082 10 gusting 13 20.5
2020-Apr-04 15:00 089 8 gusting 15 20.4
2020-Apr-04 14:50 076 11 gusting 13 20.1
2020-Apr-04 14:40 094 11 gusting 13 19.9
2020-Apr-04 14:30 074 9 gusting 13 19.8
2020-Apr-04 14:20 075 10 gusting 14 19.4
2020-Apr-04 14:10 067 13 gusting 13 19.3
2020-Apr-04 14:00 083 12 gusting 14 19.3
2020-Apr-04 13:50 071 11 gusting 14 19.1
2020-Apr-04 13:40 078 10 gusting 15 18.9
2020-Apr-04 13:30 079 12 gusting 13 18.9
2020-Apr-04 13:00 070 7 gusting 9 18.2
2020-Apr-04 12:50 077 6 gusting 7 17.7
2020-Apr-04 12:40 062 4 gusting 7 17.6
2020-Apr-04 12:30 053 5 gusting 6 17.4
2020-Apr-04 12:20 061 5 gusting 6 17.3
2020-Apr-04 12:10 064 3 gusting 5 16.8
2020-Apr-04 12:00 042 4 gusting 5 16.9
2020-Apr-04 11:50 051 3 gusting 3 16.7
2020-Apr-04 11:40 036 1 gusting 2 16.5
2020-Apr-04 11:30 010 0 gusting 2 16.2
2020-Apr-04 11:20 15.9
2020-Apr-04 11:10 050 0 gusting 2 15.8
2020-Apr-04 11:00 005 0 gusting 3 15.6
2020-Apr-04 10:50 316 2 gusting 3 15.6
2020-Apr-04 10:40 296 3 gusting 3 15.6
2020-Apr-04 10:30 291 1 gusting 2 15.6
2020-Apr-04 10:20 024 1 gusting 6 15.7
2020-Apr-04 10:10 022 5 gusting 10 15.6
2020-Apr-04 10:00 046 11 gusting 12 15.6
2020-Apr-04 09:50 278 2 gusting 5 15.6
2020-Apr-04 09:40 271 2 gusting 3 15.6
2020-Apr-04 09:30 277 0 gusting 5 15.5
2020-Apr-04 09:20 294 4 gusting 6 15.3
2020-Apr-04 09:10 259 3 gusting 6 15.3
2020-Apr-04 09:00 255 2 gusting 5 15.4
2020-Apr-04 08:50 268 2 gusting 5 15.4
2020-Apr-04 08:40 268 2 gusting 5 15.3
2020-Apr-04 08:30 260 2 gusting 3 15.3
2020-Apr-04 08:20 258 2 gusting 4 15.4
2020-Apr-04 08:10 266 1 gusting 6 15.4
2020-Apr-04 08:00 260 2 gusting 6 15.4
2020-Apr-04 07:50 263 5 gusting 6 15.3
2020-Apr-04 07:40 259 6 gusting 6 15.3
2020-Apr-04 07:30 268 5 gusting 6 15.4
2020-Apr-04 07:20 268 3 gusting 6 15.3
2020-Apr-04 07:10 263 3 gusting 6 15.3
2020-Apr-04 07:00 267 1 gusting 3 15.1
2020-Apr-04 06:50 269 2 gusting 3 15.1
2020-Apr-04 06:40 268 2 gusting 3 15.1
2020-Apr-04 06:30 268 1 gusting 3 15.1
2020-Apr-04 06:20 268 3 gusting 3 15.1
2020-Apr-04 06:10 267 1 gusting 2 15.1
2020-Apr-04 06:00 267 2 gusting 3 15.3
2020-Apr-04 05:50 267 1 gusting 2 15.2
2020-Apr-04 05:40 267 1 gusting 2 15.3
2020-Apr-04 05:30 267 0 gusting 2 15.4
2020-Apr-04 05:20 267 1 gusting 2 15.4
2020-Apr-04 05:10 267 2 gusting 2 15.3
2020-Apr-04 05:00 267 1 gusting 2 15.5
2020-Apr-04 04:50 267 1 gusting 2 15.6
2020-Apr-04 04:40 267 1 gusting 1 15.6
2020-Apr-04 04:30 267 0 gusting 1 15.6
2020-Apr-04 04:20 267 1 gusting 1 15.9
2020-Apr-04 04:10 267 0 gusting 1 16.0
2020-Apr-04 04:00 267 0 gusting 2 16.3
2020-Apr-04 03:50 267 0 gusting 1 16.2
2020-Apr-04 03:30 267 0 gusting 2 16.3
2020-Apr-04 03:20 265 0 gusting 3 16.4
2020-Apr-04 03:10 279 1 gusting 3 16.6
2020-Apr-04 03:00 263 1 gusting 2 16.8
2020-Apr-04 02:50 260 0 gusting 2 16.9
2020-Apr-04 02:40 260 2 gusting 3 17.1
2020-Apr-04 02:30 255 1 gusting 6 17.3
2020-Apr-04 02:10 249 2 gusting 3 17.4
2020-Apr-04 02:00 231 2 gusting 6 17.6
2020-Apr-04 01:50 234 4 gusting 6 17.7
2020-Apr-04 01:40 263 5 gusting 6 17.8
2020-Apr-04 01:20 238 2 gusting 8 18.0
2020-Apr-04 01:00 275 0 gusting 5 18.1
2020-Apr-04 00:30 18.4
2020-Apr-04 00:20 18.7
2020-Apr-04 00:10 204 1 gusting 3 19.0
2020-Apr-04 00:00 258 0 gusting 4 19.5
2020-Apr-03 23:50 206 0 gusting 2 20.2
2020-Apr-03 23:40 206 1 gusting 4 20.3
2020-Apr-03 23:30 203 1 gusting 2 20.7
2020-Apr-03 23:20 21.1
2020-Apr-03 23:10 161 0 gusting 5 21.3
2020-Apr-03 23:00 144 0 gusting 6 21.7
2020-Apr-03 22:50 191 0 gusting 6 21.8
2020-Apr-03 22:40 208 1 gusting 6 22.1
2020-Apr-03 22:30 223 2 gusting 8 22.1
2020-Apr-03 22:20 187 2 gusting 6 21.9
2020-Apr-03 22:10 183 1 gusting 7 21.8
2020-Apr-03 22:00 190 0 gusting 8 22.0
2020-Apr-03 21:50 22.3
2020-Apr-03 21:40 232 4 gusting 6 22.2
2020-Apr-03 21:30 194 6 gusting 10 21.8
2020-Apr-03 21:20 188 3 gusting 8 21.4
2020-Apr-03 21:10 183 1 gusting 11 21.2
2020-Apr-03 20:50 146 2 gusting 12 21.4
2020-Apr-03 20:40 178 3 gusting 10 21.6
2020-Apr-03 20:30 202 0 gusting 6 22.4
2020-Apr-03 20:20 166 3 gusting 6 22.9
2020-Apr-03 20:10 255 4 gusting 7 22.3
2020-Apr-03 20:00 194 2 gusting 8 22.6
2020-Apr-03 19:50 233 0 gusting 7 22.7
2020-Apr-03 19:40 214 6 gusting 6 22.5
2020-Apr-03 19:30 273 2 gusting 7 22.5
2020-Apr-03 19:20 207 2 gusting 7 22.8
2020-Apr-03 19:10 294 1 gusting 8 23.3
2020-Apr-03 19:00 239 4 gusting 12 22.8
2020-Apr-03 18:50 257 6 gusting 9 23.1
2020-Apr-03 18:40 266 10 gusting 12 22.9
2020-Apr-03 18:30 239 7 gusting 8 22.6
2020-Apr-03 18:20 274 7 gusting 8 22.7
2020-Apr-03 18:10 299 6 gusting 10 22.4
2020-Apr-03 18:00 182 1 gusting 6 21.4
2020-Apr-03 17:50 159 6 gusting 6 21.4
2020-Apr-03 17:40 21.2
2020-Apr-03 17:30 082 6 gusting 6 20.9
2020-Apr-03 17:20 329 0 gusting 6 21.7
2020-Apr-03 17:10 305 2 gusting 6 21.3
2020-Apr-03 17:00 21.2
2020-Apr-03 16:50 123 0 gusting 4 20.6
2020-Apr-03 16:40 109 2 gusting 5 20.2
2020-Apr-03 16:30 071 3 gusting 6 19.6
2020-Apr-03 16:20 078 1 gusting 4 19.6
2020-Apr-03 16:10 074 2 gusting 4 19.3
2020-Apr-03 16:00 074 3 gusting 3 19.3
2020-Apr-03 15:50 080 0 gusting 3 19.1
2020-Apr-03 15:40 078 2 gusting 4 19.1
2020-Apr-03 15:30 059 1 gusting 2 19.1
2020-Apr-03 15:20 086 4 gusting 6 18.2
2020-Apr-03 15:10 093 0 gusting 3 18.6
2020-Apr-03 15:00 092 1 gusting 6 18.2
2020-Apr-03 14:50 080 3 gusting 6 17.6
2020-Apr-03 14:40 053 5 gusting 8 17.4
2020-Apr-03 14:30 086 6 gusting 7 17.3
2020-Apr-03 14:20 083 6 gusting 7 17.1
2020-Apr-03 14:10 079 6 gusting 7 16.8
2020-Apr-03 14:00 078 6 gusting 6 16.8
2020-Apr-03 13:50 090 1 gusting 6 16.3
2020-Apr-03 13:40 083 4 gusting 5 15.8
2020-Apr-03 13:30 058 2 gusting 3 15.7
2020-Apr-03 13:20 055 2 gusting 5 15.2
2020-Apr-03 13:10 055 2 gusting 5 15.2
2020-Apr-03 13:00 078 4 gusting 6 14.8
2020-Apr-03 12:50 060 2 gusting 5 14.8
2020-Apr-03 11:30 340 0 gusting 2 11.9
2020-Apr-03 11:20 11.8
2020-Apr-03 11:10 281 2 gusting 3 12.0
2020-Apr-03 11:00 11.9
2020-Apr-03 10:50 313 2 gusting 5 11.9
2020-Apr-03 10:40 298 4 gusting 4 11.9
2020-Apr-03 10:30 304 1 gusting 3 11.9
2020-Apr-03 10:20 315 2 gusting 7 12.1
2020-Apr-03 10:10 336 3 gusting 5 12.2
2020-Apr-03 10:00 343 2 gusting 5 12.1
2020-Apr-03 09:50 025 0 gusting 4 12.1
2020-Apr-03 09:40 284 3 gusting 3 12.1
2020-Apr-03 09:30 279 2 gusting 4 11.9
2020-Apr-03 09:20 290 4 gusting 4 11.8
2020-Apr-03 09:10 269 1 gusting 2 11.9
2020-Apr-03 09:00 269 1 gusting 3 12.0
2020-Apr-03 08:50 269 1 gusting 3 12.0
2020-Apr-03 08:40 269 1 gusting 3 12.0
2020-Apr-03 08:30 276 3 gusting 5 11.9
2020-Apr-03 08:20 268 2 gusting 3 11.9
2020-Apr-03 08:10 268 1 gusting 2 11.8
2020-Apr-03 08:00 268 2 gusting 2 11.8
2020-Apr-03 07:50 268 1 gusting 2 11.7
2020-Apr-03 07:40 268 1 gusting 2 11.9
2020-Apr-03 07:30 268 1 gusting 2 12.0
2020-Apr-03 07:20 268 1 gusting 1 11.6
2020-Apr-03 07:10 268 1 gusting 2 11.9
2020-Apr-03 07:00 268 2 gusting 2 11.8